TimeCST,TemperatureF,Dew PointF,Humidity,Sea Level PressureIn,VisibilityMPH,Wind Direction,Wind SpeedMPH,Gust SpeedMPH,PrecipitationIn,Events,Conditions,WindDirDegrees,DateUTC
12:53 AM,10.0,6.1,84,29.78,10.0,SSW,10.4,-,N/A,,Partly Cloudy,210,2014-01-19 06:53:00
1:53 AM,12.0,7.0,80,29.76,10.0,SW,11.5,-,N/A,,Overcast,220,2014-01-19 07:53:00
2:53 AM,12.9,8.1,81,29.73,10.0,SSW,13.8,-,N/A,,Overcast,210,2014-01-19 08:53:00
3:53 AM,16.0,10.0,77,29.68,10.0,SW,11.5,-,N/A,,Overcast,220,2014-01-19 09:53:00
4:53 AM,18.0,12.0,78,29.63,10.0,SW,16.1,23.0,N/A,,Mostly Cloudy,220,2014-01-19 10:53:00
5:53 AM,19.9,12.0,71,29.60,10.0,SW,13.8,23.0,N/A,,Overcast,230,2014-01-19 11:53:00
6:53 AM,19.9,12.9,74,29.58,10.0,SW,15.0,24.2,N/A,,Clear,230,2014-01-19 12:53:00
7:53 AM,19.9,12.9,74,29.59,10.0,WSW,16.1,26.5,N/A,,Clear,240,2014-01-19 13:53:00
8:53 AM,21.0,14.0,74,29.61,10.0,WSW,15.0,20.7,N/A,,Clear,240,2014-01-19 14:53:00
9:53 AM,23.0,15.1,72,29.60,10.0,SW,13.8,-,N/A,,Clear,230,2014-01-19 15:53:00
10:53 AM,26.1,17.1,69,29.60,10.0,WSW,13.8,21.9,N/A,,Clear,240,2014-01-19 16:53:00
11:53 AM,28.0,18.0,66,29.57,10.0,SW,13.8,21.9,N/A,,Clear,230,2014-01-19 17:53:00
12:53 PM,28.9,19.0,67,29.54,10.0,SW,9.2,-,N/A,,Clear,230,2014-01-19 18:53:00
1:53 PM,30.0,19.9,66,29.51,10.0,SSW,10.4,-,N/A,,Clear,210,2014-01-19 19:53:00
2:53 PM,30.9,21.0,67,29.49,10.0,SSW,12.7,-,N/A,,Clear,210,2014-01-19 20:53:00
3:53 PM,32.0,21.0,64,29.48,10.0,SW,8.1,-,N/A,,Clear,220,2014-01-19 21:53:00
4:53 PM,28.9,19.9,69,29.52,10.0,SSW,6.9,-,N/A,,Clear,210,2014-01-19 22:53:00
5:53 PM,27.0,19.0,72,29.52,10.0,SSW,5.8,-,N/A,,Clear,210,2014-01-19 23:53:00
6:53 PM,28.0,19.9,72,29.51,10.0,SSW,8.1,-,N/A,,Overcast,210,2014-01-20 00:53:00
7:53 PM,28.9,21.0,72,29.51,10.0,SW,5.8,-,N/A,,Overcast,220,2014-01-20 01:53:00
8:53 PM,28.9,21.9,75,29.52,10.0,WSW,4.6,-,N/A,,Overcast,240,2014-01-20 02:53:00
9:53 PM,30.0,21.9,72,29.55,10.0,NNW,9.2,-,N/A,,Overcast,330,2014-01-20 03:53:00
10:17 PM,30.0,21.9,72,29.53,10.0,NNW,6.9,-,N/A,,Overcast,340,2014-01-20 04:17:00
10:53 PM,28.9,21.9,75,29.59,10.0,North,13.8,-,N/A,,Overcast,10,2014-01-20 04:53:00
11:07 PM,25.0,21.0,85,29.58,5.0,North,16.1,-,N/A,,Overcast,10,2014-01-20 05:07:00
11:14 PM,24.1,21.0,88,29.58,5.0,North,17.3,-,N/A,,Overcast,360,2014-01-20 05:14:00
11:53 PM,21.0,18.0,88,29.64,7.0,North,10.4,-,N/A,,Overcast,360,2014-01-20 05:53:00